GFSNGP_prec_cthk_276.txt.gz
RH
42 38 39 36 39 43 51 52 59 46 54 48 54 61 60 57 59 60 62 69 69 65 60 59 57 55 51 45 41 36 35 36 39 42 46 46 47 49 53 58 54 48 43 43
47 38 40 40 35 37 42 45 50 53 49 47 49 57 58 54 54 53 53 55 59 65 67 66 66 65 64 60 51 43 38 37 37 36 38 46 47 46 49 51 58 56 43 41
50 47 48 51 37 35 36 40 48 59 47 47 52 54 52 48 51 52 51 52 53 55 57 61 63 63 65 61 53 51 47 41 42 39 38 41 47 48 45 48 51 49 44 44
56 51 52 35 38 38 41 42 51 49 48 50 49 48 52 50 46 44 47 47 50 52 51 54 57 60 61 60 54 48 45 45 48 49 46 42 45 50 55 54 59 58 53 51
60 66 46 39 38 42 47 44 45 41 48 50 52 52 47 53 49 48 45 44 46 48 50 52 52 51 56 58 51 48 45 44 45 48 55 56 53 51 52 61 66 67 66 61
69 71 71 48 45 46 49 50 38 43 47 50 53 57 48 50 47 48 42 39 44 47 49 50 49 46 46 52 56 49 46 44 44 42 47 50 54 58 60 61 66 72 70 70
72 73 59 47 47 56 59 51 47 47 48 51 57 51 51 55 53 47 45 47 45 49 51 48 47 47 47 45 46 49 47 42 39 39 39 43 45 51 57 62 66 68 79 77
76 79 71 48 52 54 48 46 47 50 52 54 51 47 53 54 53 51 47 45 46 47 48 49 50 48 45 44 42 38 36 37 36 33 32 32 38 41 48 54 58 64 63 69
66 59 51 53 53 53 56 56 57 58 58 59 57 49 57 56 61 60 51 46 47 44 43 43 44 46 45 41 36 32 30 30 33 34 31 32 32 35 36 44 51 56 62 62
61 49 47 45 47 48 48 50 48 45 46 49 52 49 52 60 63 63 57 51 49 47 44 41 39 35 32 32 33 32 33 31 29 29 34 36 32 32 35 38 44 48 52 61
54 50 49 45 46 46 45 45 45 46 47 45 46 45 51 62 66 66 55 53 52 47 41 40 38 36 34 35 34 37 37 37 37 38 36 37 37 34 34 37 40 45 48 47
57 52 54 50 50 50 50 48 49 50 48 46 47 51 60 70 78 68 61 59 51 44 40 38 36 33 32 32 36 37 39 42 43 45 45 41 38 36 35 34 36 38 43 48
57 55 55 55 54 52 49 47 49 54 55 50 52 62 74 80 73 72 65 55 43 36 31 31 33 34 33 33 32 33 33 34 38 40 42 42 40 36 33 32 33 33 36 40
57 59 56 57 58 57 56 52 57 58 58 52 61 76 84 81 76 68 60 44 35 32 35 36 33 32 30 27 26 26 26 29 33 32 33 35 34 34 35 33 32 33 34 35
58 59 60 57 58 58 57 56 61 61 53 57 69 78 83 85 75 67 56 45 44 36 33 32 31 28 25 27 29 30 28 28 33 32 31 33 32 31 32 32 33 34 34 36
62 59 59 57 56 61 60 56 65 63 63 71 79 86 92 85 74 63 56 52 52 46 34 28 26 25 25 26 29 32 32 28 31 34 34 35 35 34 32 32 32 33 34 34
66 62 65 65 62 67 70 62 63 65 71 80 93 95 87 80 67 60 62 60 51 48 45 40 35 32 31 31 33 35 34 30 27 32 34 36 38 39 39 38 35 35 34 34
75 75 79 75 68 70 74 76 71 70 80 90 95 94 86 72 63 68 66 58 51 48 43 39 35 31 27 26 32 32 32 27 27 31 32 35 39 40 40 41 41 39 37 38
74 76 81 82 85 89 90 93 91 92 95 99 98 87 79 71 74 71 63 55 51 47 44 39 35 31 26 24 24 29 31 30 28 27 30 36 39 40 40 42 42 42 41 39
72 77 83 89 90 90 93 95 95 94 92 92 90 87 83 79 75 67 58 54 53 49 45 39 37 32 27 24 22 26 31 33 29 27 29 35 40 39 39 43 46 45 45 43
71 76 78 81 88 92 90 88 89 88 86 82 78 70 67 69 66 60 59 55 55 52 49 45 41 35 29 26 24 28 34 35 30 27 30 36 41 40 40 42 46 50 48 48
68 73 77 79 80 79 79 79 79 78 80 82 82 82 79 78 77 74 73 71 63 57 49 44 39 34 29 27 26 26 32 33 31 28 31 38 43 42 42 44 47 49 52 55
64 66 64 62 66 69 70 73 75 74 73 75 79 79 77 76 76 76 73 75 73 67 59 46 40 35 32 27 26 26 29 29 29 31 36 44 45 46 46 48 50 54 58 66
62 62 61 59 58 56 56 57 63 67 68 71 74 77 75 71 68 71 68 65 67 63 54 49 42 36 30 28 27 27 25 22 26 33 41 47 47 48 48 51 54 58 65 73
62 60 56 54 54 53 54 51 52 52 56 63 66 69 69 72 72 69 71 69 66 59 52 46 44 40 34 30 28 25 22 21 28 37 45 47 49 49 52 54 57 61 68 73
52 52 52 49 50 52 53 51 50 47 47 46 52 61 68 77 75 75 75 70 64 57 52 51 48 44 38 33 27 22 20 23 31 41 47 48 51 52 55 57 61 68 72 83
47 45 41 36 34 40 49 49 49 49 55 55 58 64 74 81 83 82 80 75 65 57 50 51 47 41 34 27 22 21 23 27 35 46 48 51 53 55 58 63 69 75 90 98

GFSNGP_prec_cthk_282.txt.gz
RH
38 34 32 33 45 44 48 39 44 29 32 31 34 33 34 36 37 38 37 36 33 35 39 42 44 43 45 45 43 42 43 43 43 43 42 40 36 32 32 31 34 42 51 59
39 32 35 39 38 40 42 43 38 40 36 33 32 35 36 39 43 41 41 39 36 38 38 39 39 36 38 39 40 39 38 40 44 45 42 42 40 38 36 31 33 36 43 49
44 39 38 45 39 36 36 38 39 42 34 37 38 42 46 45 47 46 43 44 42 40 39 37 34 34 35 35 33 31 34 37 38 43 42 42 45 43 38 32 30 32 34 41
53 45 51 35 33 35 37 39 39 37 39 39 42 43 44 45 50 48 47 48 47 45 36 33 36 38 38 37 37 34 33 33 36 35 38 41 43 43 40 36 31 30 33 35
57 47 36 34 34 33 37 36 39 41 39 41 45 53 46 49 55 53 49 46 48 46 39 34 36 36 34 34 33 32 33 31 28 29 33 34 39 44 40 32 34 37 33 35
60 56 44 38 38 39 40 43 40 39 43 46 47 50 52 60 63 57 55 51 49 51 47 42 37 33 33 34 32 29 26 22 25 28 29 34 37 40 42 40 38 38 39 40
61 59 45 38 40 42 46 53 43 41 47 51 53 56 58 56 56 59 60 58 52 54 54 50 45 40 37 36 34 29 25 24 24 28 30 30 34 36 39 41 39 38 38 39
60 63 59 39 41 44 47 44 47 49 53 54 54 54 54 53 55 60 63 62 63 56 55 55 50 45 39 35 33 29 27 26 28 30 30 32 33 35 36 36 36 36 36 36
49 47 44 42 43 45 48 50 50 53 52 50 51 50 49 50 51 54 55 59 63 63 60 62 55 49 42 38 33 29 26 25 25 24 23 22 25 26 26 30 35 36 40 39
47 42 44 45 45 45 44 44 45 46 47 47 46 47 48 49 52 51 53 57 66 63 62 70 65 56 45 38 27 25 26 27 25 22 20 21 22 23 22 22 22 25 30 35
43 44 46 45 48 48 48 48 48 49 50 51 53 52 51 51 54 53 54 59 64 63 73 79 71 56 45 37 30 26 27 27 26 26 25 25 25 27 26 22 21 22 24 27
45 49 51 50 51 53 53 52 49 51 51 52 56 57 56 53 53 55 62 62 70 77 84 82 71 54 49 46 35 26 25 27 28 29 28 28 31 31 31 26 19 20 22 24
52 52 53 55 59 57 56 52 51 52 52 51 53 59 56 59 60 65 67 69 77 87 89 82 65 57 57 48 41 36 35 32 29 28 29 30 33 35 30 30 28 21 23 26
56 59 58 56 53 50 49 48 50 50 56 58 53 59 62 65 62 65 68 78 97 93 90 76 62 59 58 48 41 37 38 37 32 36 34 32 31 29 33 32 30 26 22 25
59 63 62 57 55 52 49 50 51 54 60 63 64 64 68 70 68 72 84 96 95 91 90 78 68 63 63 53 45 42 40 40 38 36 35 34 29 27 28 30 33 33 25 23
59 58 57 56 55 54 52 50 54 61 69 75 77 79 80 85 90 90 95 97 98 98 91 84 74 72 70 60 52 50 46 43 41 40 36 31 29 29 29 33 34 37 34 29
60 58 58 57 56 55 55 56 57 62 70 75 83 89 92 97 99 98 97 98 97 93 88 87 79 74 71 61 56 58 53 50 46 40 36 34 32 35 38 36 35 35 37 30
61 62 62 62 61 56 57 59 59 59 65 73 77 81 91 97 98 98 98 97 97 95 93 87 80 77 73 71 72 68 57 53 51 49 43 40 39 38 39 40 37 38 41 35
57 57 55 50 49 49 46 45 46 47 50 54 62 74 87 89 95 98 98 98 98 97 95 94 91 88 85 86 81 76 70 66 63 59 52 43 37 35 38 39 38 40 42 38
57 55 52 52 53 52 50 48 45 45 49 48 44 50 64 75 85 88 91 90 91 88 87 87 86 85 84 83 79 73 69 69 64 56 49 41 37 35 33 32 35 43 42 38
60 60 59 57 52 53 56 55 54 51 48 50 51 45 45 55 59 65 75 82 83 85 87 85 83 81 78 74 68 61 57 57 54 49 44 40 36 36 35 32 37 41 39 39
62 61 59 58 56 52 52 55 53 47 45 43 44 44 40 41 49 54 59 69 75 75 74 72 75 74 73 68 61 53 48 47 44 41 39 38 39 39 35 34 36 38 39 44
62 62 58 60 60 52 47 47 45 43 42 42 36 32 36 36 37 46 49 58 68 72 72 74 77 80 69 63 59 51 46 43 41 41 37 39 42 38 34 34 36 38 43 50
51 52 55 61 60 52 44 37 36 35 37 36 37 40 42 43 43 50 54 55 58 66 68 70 78 72 64 61 56 47 43 42 41 38 40 38 35 35 35 35 36 42 50 53
37 43 50 54 52 45 43 41 40 42 43 44 46 45 48 58 69 68 66 70 72 73 75 73 67 66 63 61 57 54 51 48 44 44 39 36 36 37 37 38 43 52 55 56
46 56 58 51 49 48 48 51 49 48 55 61 62 68 79 84 83 82 81 78 73 72 68 66 61 58 55 53 52 51 49 46 44 43 43 41 41 39 40 44 53 58 59 65
58 61 57 50 51 51 51 49 54 64 81 83 84 86 88 85 79 73 69 64 58 55 54 51 49 47 46 45 44 44 45 45 46 45 43 42 39 40 45 55 59 62 72 85

GFSNGP_prec_cthk_288.txt.gz
RH
33 28 29 35 37 37 42 34 39 29 29 28 27 28 28 29 29 31 35 38 42 43 45 45 45 43 42 44 44 40 34 29 27 23 20 19 18 18 17 21 21 23 22 27
32 27 27 29 27 34 36 38 34 33 32 32 31 32 31 32 32 33 39 42 42 42 43 46 48 47 42 45 45 43 35 31 30 27 21 18 17 18 19 19 18 20 19 23
40 33 35 41 36 33 29 29 31 34 32 33 32 31 31 30 33 38 40 40 41 44 45 43 47 47 43 42 47 43 40 37 34 32 25 19 19 18 19 18 20 20 20 22
46 39 52 37 31 28 28 29 29 30 31 32 34 34 33 34 36 39 45 49 43 45 46 45 46 49 51 47 46 46 44 43 39 36 27 25 23 23 22 20 21 21 21 23
55 49 40 35 35 34 29 30 30 32 33 35 34 34 35 40 42 43 45 48 49 50 51 53 55 58 54 56 58 51 48 49 47 40 32 29 28 26 23 20 19 20 20 20
58 59 53 46 37 36 31 34 37 40 40 40 39 39 39 41 43 44 44 44 45 46 47 49 52 57 64 62 72 67 58 51 47 42 38 34 30 22 21 20 18 18 17 17
61 61 49 45 41 37 39 56 50 47 44 42 43 43 42 41 40 40 39 38 39 39 40 42 47 52 58 72 73 69 73 59 48 43 41 37 29 24 19 19 22 22 20 20
64 69 65 45 41 40 45 46 45 44 44 42 42 42 41 40 40 40 39 40 41 41 40 41 45 50 54 63 69 79 82 69 54 49 44 39 31 24 20 20 24 25 24 23
59 58 54 50 46 46 45 44 45 46 47 47 46 45 45 44 43 42 43 45 46 47 44 44 49 52 56 64 72 80 89 77 60 56 49 45 34 25 22 23 23 24 24 23
58 56 55 50 49 49 50 51 51 53 52 49 47 46 46 47 47 48 49 49 49 49 47 45 49 55 59 66 76 85 85 72 67 63 52 50 42 35 27 23 24 25 27 28
57 56 52 52 54 54 54 54 50 47 48 46 47 51 52 53 52 55 56 56 52 53 52 51 54 55 68 76 79 93 86 80 78 68 57 54 47 41 36 31 32 32 32 29
60 60 55 57 57 58 55 50 50 47 46 42 41 43 45 46 48 48 53 50 49 56 65 66 58 67 72 78 95 89 77 83 81 71 61 59 50 40 35 34 35 36 36 31
58 57 59 59 56 56 51 48 49 47 48 46 46 44 42 42 48 53 58 56 62 68 70 82 76 74 86 97 93 89 82 84 80 77 68 68 60 48 41 40 39 35 32 30
56 54 55 58 54 52 53 54 54 52 51 50 45 44 44 44 42 45 49 53 60 67 77 84 89 90 88 91 96 96 94 95 93 84 78 74 70 66 57 49 44 42 41 40
64 58 55 56 56 54 53 52 52 51 50 46 44 44 41 43 43 38 36 38 42 54 68 78 87 94 97 98 97 97 97 97 97 93 86 82 79 80 72 67 62 58 57 55
60 62 63 63 59 56 54 52 48 46 45 45 45 41 41 41 37 31 29 30 32 33 41 57 69 90 91 96 97 98 97 98 97 97 97 95 92 90 89 84 78 73 68 65
61 59 56 53 51 50 48 46 45 44 44 43 42 43 41 38 33 34 33 32 34 34 36 36 36 48 70 84 93 95 97 98 98 97 93 88 85 81 77 73 68 64 57 50
56 52 49 49 50 49 47 44 44 44 44 41 42 44 41 36 34 31 32 30 30 31 34 38 43 44 49 63 78 86 93 94 93 91 88 84 81 77 71 63 59 56 52 47
52 49 50 49 50 52 54 53 54 49 44 44 44 40 34 28 28 29 30 31 36 42 36 45 46 47 49 55 71 81 84 84 86 85 85 81 74 69 64 59 53 50 47 40
50 47 46 47 50 54 58 53 47 44 44 47 38 31 28 24 26 28 30 33 39 48 52 51 53 48 48 63 78 89 84 79 80 81 81 76 68 61 58 55 48 42 40 38
43 44 45 41 35 31 31 31 36 39 42 37 31 31 30 27 28 33 40 46 40 48 50 49 54 59 66 72 82 77 74 75 72 67 67 67 59 52 51 48 46 44 41 43
28 27 26 27 27 25 24 29 40 48 45 38 31 31 35 40 52 55 64 75 77 68 69 75 78 75 71 70 65 61 63 64 59 57 57 57 55 54 52 51 48 49 49 47
24 25 26 26 26 27 35 48 57 55 48 41 44 46 53 63 73 77 71 72 77 80 81 77 74 72 71 69 67 64 62 63 65 62 58 57 55 54 57 59 55 49 50 52
27 30 27 29 44 57 63 65 66 62 60 59 49 52 57 65 61 74 80 77 74 70 65 67 66 65 64 60 60 57 54 55 53 51 50 49 52 54 56 58 57 55 52 49
35 38 42 51 54 59 73 73 72 69 64 51 45 48 59 64 72 66 73 72 67 62 66 62 63 60 58 57 56 52 50 50 50 48 49 51 54 56 57 57 54 51 47 45
42 42 40 41 46 52 62 74 83 79 71 56 47 49 51 63 72 74 71 69 67 68 60 58 57 56 55 55 54 51 51 51 48 46 47 50 54 55 53 51 49 46 48 57
35 36 42 47 50 57 63 76 84 83 78 70 54 46 52 65 79 80 78 77 66 58 59 60 59 55 52 51 49 47 46 48 47 47 47 50 52 50 49 48 47 51 62 66

GFSNGP_prec_cthk_291.txt.gz
RH
34 31 31 30 34 40 39 36 36 31 31 31 30 29 28 26 25 26 26 26 27 31 34 34 34 35 36 36 36 37 34 30 28 25 24 24 23 19 20 18 15 13 14 14
27 24 25 28 35 38 39 35 32 29 29 28 28 30 29 27 27 27 27 28 32 34 37 37 37 37 38 39 38 38 36 37 36 29 28 26 24 21 22 23 22 17 14 15
36 32 32 36 34 34 37 37 36 38 33 31 32 30 30 30 29 30 32 35 38 40 41 40 40 41 42 43 44 45 46 42 43 39 36 31 28 24 27 28 26 22 18 16
43 37 48 38 33 33 34 35 36 33 30 30 32 32 33 35 35 37 39 39 40 41 43 45 45 46 46 46 47 50 53 50 50 48 46 39 34 30 32 32 29 22 19 19
50 53 42 40 38 36 36 37 35 34 35 35 35 34 35 36 37 39 41 41 42 44 44 44 45 45 43 47 50 51 54 51 65 59 57 50 42 35 36 34 30 25 20 20
50 58 62 48 43 42 39 44 43 39 40 40 38 42 40 36 36 36 38 38 37 36 38 39 40 40 40 42 43 48 56 53 58 64 65 62 60 44 38 35 32 26 21 23
58 62 53 45 46 44 48 53 47 44 44 45 45 44 41 39 38 36 36 35 35 35 36 37 38 39 38 39 42 44 48 56 60 62 70 70 68 62 44 41 34 28 25 24
59 69 68 48 52 51 52 49 48 48 48 47 46 43 41 40 40 39 40 41 42 41 40 41 42 43 41 40 45 48 52 63 64 73 90 83 74 67 50 47 37 30 29 23
54 62 56 57 56 54 51 51 50 49 49 48 46 47 46 43 43 44 43 42 42 43 42 43 46 45 44 43 46 50 55 70 80 77 78 87 78 65 55 51 48 40 31 25
61 63 65 65 61 58 55 53 53 51 50 45 44 42 42 43 44 47 46 45 47 49 49 49 51 51 52 51 58 60 71 77 86 81 83 90 80 73 62 60 54 46 41 36
63 62 65 67 64 61 57 57 55 54 48 44 43 42 41 39 37 36 36 36 38 42 45 50 53 54 55 60 72 71 77 88 87 88 97 93 83 77 72 65 60 49 42 39
69 65 65 66 63 60 60 61 57 50 49 50 48 47 43 40 38 36 35 31 26 25 28 33 39 47 55 61 85 98 96 81 92 96 97 96 89 82 77 70 66 62 52 46
67 65 68 67 66 64 59 54 53 53 52 51 48 45 43 42 40 38 37 32 23 24 22 21 22 27 37 54 72 83 93 98 99 99 98 97 94 90 85 80 73 71 65 59
67 66 65 64 58 54 54 54 53 52 50 48 46 44 41 40 37 34 31 28 27 27 26 24 22 22 26 35 42 63 78 90 94 97 98 98 98 97 92 86 80 76 79 80
65 63 62 61 61 60 57 54 50 46 45 44 41 39 39 37 34 34 32 32 30 30 28 27 26 26 26 26 34 43 50 70 87 94 97 98 98 99 96 94 88 83 77 76
71 68 64 60 58 55 51 48 44 42 40 39 38 42 40 39 37 32 29 25 23 18 17 19 21 26 33 41 43 46 51 56 67 80 93 96 96 96 92 89 84 79 74 69
65 63 61 57 52 48 46 46 47 47 46 44 47 44 39 39 34 28 22 18 17 18 19 22 27 33 44 53 56 56 52 60 65 74 82 90 96 95 91 87 82 74 68 64
65 62 58 54 52 53 54 53 50 53 56 56 49 37 36 34 30 25 23 24 22 23 22 33 40 50 55 56 60 63 62 62 79 85 88 89 89 92 93 88 79 71 63 59
60 56 52 49 46 46 46 46 44 40 36 31 28 33 37 36 33 29 29 33 43 46 40 52 59 58 55 54 55 60 62 81 91 99 96 89 84 82 80 77 72 67 60 54
51 46 41 39 35 31 29 26 27 25 21 24 35 39 39 36 33 33 41 46 61 72 76 77 69 65 70 75 76 70 72 80 88 89 82 69 64 60 56 56 58 56 52 49
36 27 24 23 23 24 25 25 24 23 30 42 51 48 48 44 43 42 45 59 68 70 65 69 67 66 67 68 68 71 71 67 63 59 58 60 61 61 60 56 51 49 48 49
24 24 23 24 25 28 31 36 42 50 55 57 58 60 56 49 46 41 44 60 59 64 68 66 62 59 60 60 60 62 62 61 61 60 60 61 60 56 52 51 52 53 54 55
27 27 28 30 32 34 35 36 41 53 61 69 70 68 55 54 55 54 41 45 60 63 69 70 62 63 60 58 59 58 58 60 58 54 54 53 50 48 46 47 50 54 57 56
29 30 31 35 36 32 32 35 41 47 58 68 74 72 67 63 54 56 45 52 67 68 67 66 66 56 57 58 56 56 56 56 54 53 53 52 49 47 46 48 53 55 55 52
30 32 33 32 33 37 41 46 49 50 55 69 75 78 74 71 64 55 45 57 75 75 73 67 56 55 59 59 58 54 52 52 50 50 51 52 50 49 48 53 53 51 49 48
26 29 32 34 37 43 47 49 51 57 65 71 77 82 73 66 61 60 53 70 83 81 73 61 56 58 62 59 53 52 52 51 50 49 48 48 48 46 49 51 48 47 47 49
24 29 34 33 35 37 35 39 46 49 60 76 87 82 72 65 61 55 57 75 82 82 78 67 64 64 60 53 53 59 56 53 50 50 49 49 48 51 52 47 45 46 53 65